Home   Weather   Sunnyvale   Past weeks

Flag for USA Past Weather in Sunnyvale, California, USA — Yesterday and Last 2 Weeks

Now
57 °F

Passing clouds.


Feels Like: 57 °F
Forecast: 54 / 67 °F
Wind: 5 mph from Northwest

Location: Moffett Field

Current Time: Sep 29, 2016 at 11:52:25 PM

Latest Report: Sep 29, 2016 at 10:56 PM


Visibility: 10 mi

Pressure: 30.11 "Hg

Humidity: 78%

Dew Point: 50 °F

Location of SunnyvaleLocation

Past Weather in Sunnyvale — Graph

°F

Sunnyvale Temperature Yesterday

Maximum temperature yesterday: 76 °F (at 1:56 PM)
Minimum temperature yesterday: 59 °F (at 5:56 AM)
Average temperature yesterday: 65 °F

High & Low Weather Summary for the Past Weeks

 TemperatureHumidityPressure
High95 °F (Sep 26, 3:56 PM)87% (Sep 17, 5:56 AM)30.17 "Hg (Sep 17, 5:56 AM)
Low52 °F (Sep 23, 5:56 AM)15% (Sep 27, 1:56 PM)29.83 "Hg (Sep 27, 5:56 PM)
Average68 °F60%30.00 "Hg
* Reported Sep 14 10:56 PM — Sep 29 10:56 PM, Sunnyvale, Weather by CustomWeather, © 2016

Note: Actual official high and low records may vary slightly from our data, if they occured in-between our weather recording intervals... More about our weather records

Advertising

Sunnyvale Weather History for the Previous 24 Hours

Scroll right to see more
 ConditionsComfort  
Time TempWeatherWind HumidityBarometerVisibility
10:56 PM
Thu, Sep 29
57 °FPassing clouds.5 mph78%30.11 "Hg10 mi
9:56 PM58 °FClear.9 mph81%30.10 "Hg10 mi
8:56 PM59 °FClear.10 mph78%30.09 "Hg10 mi
7:56 PM59 °FClear.10 mph78%30.07 "Hg10 mi
6:56 PM60 °FClear.9 mph72%30.07 "Hg10 mi
5:56 PM63 °FSunny.13 mph68%30.07 "Hg10 mi
4:56 PM65 °FSunny.10 mph63%30.06 "Hg10 mi
3:56 PM65 °FSunny.14 mph66%30.07 "Hg10 mi
2:56 PM66 °FSunny.13 mph65%30.08 "Hg10 mi
1:56 PM66 °FSunny.12 mph65%30.08 "Hg10 mi
12:56 PM66 °FSunny.9 mph65%30.09 "Hg10 mi
11:56 AM66 °FSunny.7 mph65%30.10 "Hg10 mi
10:56 AM65 °FSunny.7 mph68%30.10 "Hg10 mi
9:56 AM64 °FPassing clouds.5 mph70%30.10 "Hg10 mi
8:56 AM62 °FPartly sunny.No wind75%30.08 "Hg10 mi
7:56 AM61 °FOvercast.No wind78%30.07 "Hg10 mi
6:56 AM61 °FOvercast.5 mph78%30.05 "Hg10 mi
5:56 AM61 °FOvercast.3 mph81%30.03 "Hg10 mi
4:56 AM61 °FOvercast.No wind78%30.02 "Hg10 mi
3:56 AM60 °FOvercast.No wind80%30.01 "Hg10 mi
2:56 AM60 °FOvercast.No wind83%30.01 "Hg10 mi
1:56 AM60 °FOvercast.No wind83%30.01 "Hg10 mi
12:56 AM60 °FLow clouds.3 mph83%30.00 "Hg10 mi
11:56 PM
Wed, Sep 28
60 °FLow clouds.5 mph80%30.00 "Hg10 mi
Weather by CustomWeather, © 2016

See weather overviewHow to use our weather pages